Location: Cormont
(50.5693°N, 1.7416°E)
Time: 13:54:38
(UTC+00:00)

STARLINK-30 - Pass Details

Date: 21 October 2019
Orbit: 548 x 551 km, 53.0° (Epoch: 11 November)

Event Time Altitude Azimuth Distance (km) Brightness Sun altitude
Rises 18:26:55 0° 278° (W) 2,718 9.0 -16.1°
Reaches altitude 10° 18:29:10 10° 282° (WNW) 1,825 7.6 -16.5°
Maximum altitude 18:33:17 61° 3° (N) 627 3.8 -17.1°
Enters shadow 18:34:48 35° 69° (ENE) 891 4.2 -17.4°
